Time,TemperatureF,DewpointF,PressureIn,WindDirection,WindDirectionDegrees,WindSpeedMPH,WindSpeedGustMPH,Humidity,HourlyPrecipIn,Conditions,Clouds,dailyrainin,SolarRadiationWatts/m^2,SoftwareType,DateUTC
2013-04-02 00:02:00,24.0,12.0,-100.00,West,266,5.0,10.0,60,0.00,,,0.00,0.000000,,2013-04-02 05:02:00,
2013-04-02 00:32:00,22.0,12.0,-100.00,WNW,289,6.0,9.0,66,0.00,,,0.00,0.000000,,2013-04-02 05:32:00,
2013-04-02 00:43:00,22.0,12.0,-100.00,WNW,289,6.0,9.0,66,0.00,,,0.00,0.000000,,2013-04-02 05:43:00,
2013-04-02 00:52:00,22.0,12.0,-100.00,WNW,289,6.0,9.0,66,0.00,,,0.00,0.000000,,2013-04-02 05:52:00,
2013-04-02 01:02:00,22.0,12.0,-100.00,WNW,289,6.0,9.0,66,0.00,,,0.00,0.000000,,2013-04-02 06:02:00,
2013-04-02 01:32:00,21.0,12.0,-100.00,West,280,6.0,9.0,69,0.00,,,0.00,0.000000,,2013-04-02 06:32:00,
2013-04-02 01:42:00,21.0,12.0,-100.00,West,280,6.0,9.0,69,0.00,,,0.00,0.000000,,2013-04-02 06:42:00,
2013-04-02 01:52:00,21.0,12.0,-100.00,West,280,6.0,9.0,69,0.00,,,0.00,0.000000,,2013-04-02 06:52:00,
2013-04-02 02:02:00,21.0,12.0,-100.00,West,280,6.0,9.0,69,0.00,,,0.00,0.000000,,2013-04-02 07:02:00,
2013-04-02 03:32:00,20.0,12.0,-100.00,West,281,5.0,9.0,70,-99.99,,,0.00,0.000000,,2013-04-02 08:32:00,
2013-04-02 03:43:00,20.0,12.0,-100.00,West,281,5.0,9.0,70,-99.99,,,0.00,0.000000,,2013-04-02 08:43:00,
2013-04-02 03:52:00,20.0,12.0,-100.00,West,281,5.0,9.0,70,-99.99,,,0.00,0.000000,,2013-04-02 08:52:00,
2013-04-02 04:02:00,20.0,12.0,-100.00,West,281,5.0,9.0,70,-99.99,,,0.00,0.000000,,2013-04-02 09:02:00,
2013-04-02 04:33:00,19.0,11.0,-100.00,WSW,258,4.0,10.0,72,0.00,,,0.00,0.000000,,2013-04-02 09:33:00,
2013-04-02 04:43:00,19.0,11.0,-100.00,WSW,258,4.0,10.0,72,0.00,,,0.00,0.000000,,2013-04-02 09:43:00,
2013-04-02 04:53:00,19.0,11.0,-100.00,WSW,258,4.0,10.0,72,0.00,,,0.00,0.000000,,2013-04-02 09:53:00,
2013-04-02 05:03:00,19.0,11.0,-100.00,WSW,258,4.0,10.0,72,0.00,,,0.00,0.000000,,2013-04-02 10:03:00,
2013-04-02 05:33:00,18.0,11.0,-100.00,West,276,4.0,7.0,72,0.00,,,0.00,0.000000,,2013-04-02 10:33:00,
2013-04-02 05:42:00,18.0,11.0,-100.00,West,276,4.0,7.0,72,0.00,,,0.00,0.000000,,2013-04-02 10:42:00,
2013-04-02 05:52:00,18.0,11.0,-100.00,West,276,4.0,7.0,72,0.00,,,0.00,0.000000,,2013-04-02 10:52:00,
2013-04-02 06:02:00,18.0,11.0,-100.00,West,276,4.0,7.0,72,0.00,,,0.00,0.000000,,2013-04-02 11:02:00,
2013-04-02 06:33:00,17.0,11.0,-100.00,West,278,4.0,7.0,76,0.00,,,0.00,0.000000,,2013-04-02 11:33:00,
2013-04-02 06:43:00,17.0,11.0,-100.00,West,278,4.0,7.0,76,0.00,,,0.00,0.000000,,2013-04-02 11:43:00,
2013-04-02 06:53:00,17.0,11.0,-100.00,West,278,4.0,7.0,76,0.00,,,0.00,0.000000,,2013-04-02 11:53:00,
2013-04-02 07:02:00,17.0,11.0,-100.00,West,278,4.0,7.0,76,0.00,,,0.00,0.000000,,2013-04-02 12:02:00,
2013-04-02 08:33:00,21.0,12.0,-100.00,WNW,286,6.0,8.0,67,-99.99,,,0.00,128.000000,,2013-04-02 13:33:00,
2013-04-02 08:42:00,21.0,12.0,-100.00,WNW,286,6.0,8.0,67,-99.99,,,0.00,128.000000,,2013-04-02 13:42:00,
2013-04-02 08:52:00,21.0,12.0,-100.00,WNW,286,6.0,8.0,67,-99.99,,,0.00,128.000000,,2013-04-02 13:52:00,
2013-04-02 09:02:00,21.0,12.0,-100.00,WNW,286,6.0,8.0,67,-99.99,,,0.00,128.000000,,2013-04-02 14:02:00,
2013-04-02 09:33:00,24.0,13.0,-100.00,WNW,299,8.0,12.0,61,0.00,,,0.00,311.000000,,2013-04-02 14:33:00,
2013-04-02 09:42:00,24.0,13.0,-100.00,WNW,299,8.0,12.0,61,0.00,,,0.00,311.000000,,2013-04-02 14:42:00,
2013-04-02 09:52:00,24.0,13.0,-100.00,WNW,299,8.0,12.0,61,0.00,,,0.00,311.000000,,2013-04-02 14:52:00,
2013-04-02 10:02:00,24.0,13.0,-100.00,WNW,299,8.0,12.0,61,0.00,,,0.00,311.000000,,2013-04-02 15:02:00,
2013-04-02 10:33:00,27.0,13.0,-100.00,WNW,299,8.0,12.0,54,0.00,,,0.00,499.000000,,2013-04-02 15:33:00,
2013-04-02 10:43:00,27.0,13.0,-100.00,WNW,299,8.0,12.0,54,0.00,,,0.00,499.000000,,2013-04-02 15:43:00,
2013-04-02 10:58:00,27.0,13.0,-100.00,WNW,299,8.0,12.0,54,0.00,,,0.00,499.000000,,2013-04-02 15:58:00,
2013-04-02 11:04:00,27.0,13.0,-100.00,WNW,299,8.0,12.0,54,0.00,,,0.00,499.000000,,2013-04-02 16:04:00,
2013-04-02 11:05:00,30.0,15.0,-100.00,WNW,294,8.0,13.0,53,0.00,,,-99.99,630.000000,,2013-04-02 16:05:00,
2013-04-02 11:39:00,30.0,15.0,-100.00,WNW,294,8.0,13.0,53,0.00,,,-99.99,630.000000,,2013-04-02 16:39:00,
2013-04-02 11:44:00,30.0,15.0,-100.00,WNW,294,8.0,13.0,53,0.00,,,-99.99,630.000000,,2013-04-02 16:44:00,
2013-04-02 11:53:00,30.0,15.0,-100.00,WNW,294,8.0,13.0,53,0.00,,,-99.99,630.000000,,2013-04-02 16:53:00,
2013-04-02 12:35:00,31.0,14.0,-100.00,WNW,292,12.0,17.0,49,0.00,,,0.00,761.000000,,2013-04-02 17:35:00,
2013-04-02 12:43:00,31.0,14.0,-100.00,WNW,292,12.0,17.0,49,0.00,,,0.00,761.000000,,2013-04-02 17:43:00,
2013-04-02 12:55:00,31.0,14.0,-100.00,WNW,292,12.0,17.0,49,0.00,,,0.00,761.000000,,2013-04-02 17:55:00,
2013-04-02 13:03:00,31.0,14.0,-100.00,WNW,292,12.0,17.0,49,0.00,,,0.00,761.000000,,2013-04-02 18:03:00,
2013-04-02 13:35:00,32.0,14.0,-100.00,WNW,283,12.0,19.0,46,0.00,,,0.00,775.000000,,2013-04-02 18:35:00,
2013-04-02 13:43:00,32.0,14.0,-100.00,WNW,283,12.0,19.0,46,0.00,,,0.00,775.000000,,2013-04-02 18:43:00,
2013-04-02 13:57:00,32.0,14.0,-100.00,WNW,283,12.0,19.0,46,0.00,,,0.00,775.000000,,2013-04-02 18:57:00,
2013-04-02 14:03:00,32.0,14.0,-100.00,WNW,283,12.0,19.0,46,0.00,,,0.00,775.000000,,2013-04-02 19:03:00,
2013-04-02 14:34:00,33.0,13.0,-100.00,WNW,291,12.0,21.0,43,0.00,,,0.00,818.000000,,2013-04-02 19:34:00,
2013-04-02 14:47:00,33.0,13.0,-100.00,WNW,291,12.0,21.0,43,0.00,,,0.00,818.000000,,2013-04-02 19:47:00,
2013-04-02 14:56:00,33.0,13.0,-100.00,WNW,291,12.0,21.0,43,0.00,,,0.00,818.000000,,2013-04-02 19:56:00,
2013-04-02 15:03:00,33.0,13.0,-100.00,WNW,291,12.0,21.0,43,0.00,,,0.00,818.000000,,2013-04-02 20:03:00,
2013-04-02 15:34:00,34.0,14.0,-100.00,WNW,282,13.0,20.0,44,0.00,,,0.00,762.000000,,2013-04-02 20:34:00,
2013-04-02 15:44:00,34.0,14.0,-100.00,WNW,282,13.0,20.0,44,0.00,,,0.00,762.000000,,2013-04-02 20:44:00,
2013-04-02 15:54:00,34.0,14.0,-100.00,WNW,282,13.0,20.0,44,0.00,,,0.00,762.000000,,2013-04-02 20:54:00,
2013-04-02 16:04:00,34.0,14.0,-100.00,WNW,282,13.0,20.0,44,0.00,,,0.00,762.000000,,2013-04-02 21:04:00,
2013-04-02 17:34:00,35.0,14.0,-100.00,West,268,10.0,20.0,41,-99.99,,,0.00,498.000000,,2013-04-02 22:34:00,
2013-04-02 17:44:00,35.0,14.0,-100.00,West,268,10.0,20.0,41,-99.99,,,0.00,498.000000,,2013-04-02 22:44:00,
2013-04-02 17:54:00,35.0,14.0,-100.00,West,268,10.0,20.0,41,-99.99,,,0.00,498.000000,,2013-04-02 22:54:00,
2013-04-02 18:03:00,35.0,14.0,-100.00,West,268,10.0,20.0,41,-99.99,,,0.00,498.000000,,2013-04-02 23:03:00,
2013-04-02 18:37:00,34.0,12.0,-100.00,West,280,10.0,18.0,40,0.00,,,0.00,322.000000,,2013-04-02 23:37:00,
2013-04-02 18:43:00,34.0,12.0,-100.00,West,280,10.0,18.0,40,0.00,,,0.00,322.000000,,2013-04-02 23:43:00,
2013-04-02 18:54:00,34.0,12.0,-100.00,West,280,10.0,18.0,40,0.00,,,0.00,322.000000,,2013-04-02 23:54:00,
2013-04-02 19:04:00,34.0,12.0,-100.00,West,280,10.0,18.0,40,0.00,,,0.00,322.000000,,2013-04-03 00:04:00,
2013-04-02 19:34:00,32.0,12.0,-100.00,West,279,8.0,16.0,42,0.00,,,0.00,132.000000,,2013-04-03 00:34:00,
2013-04-02 19:47:00,32.0,12.0,-100.00,West,279,8.0,16.0,42,0.00,,,0.00,132.000000,,2013-04-03 00:47:00,
2013-04-02 19:56:00,32.0,12.0,-100.00,West,279,8.0,16.0,42,0.00,,,0.00,132.000000,,2013-04-03 00:56:00,
2013-04-02 20:03:00,32.0,12.0,-100.00,West,279,8.0,16.0,42,0.00,,,0.00,132.000000,,2013-04-03 01:03:00,
2013-04-02 20:34:00,29.0,11.0,-100.00,West,269,6.0,12.0,46,0.00,,,0.00,6.000000,,2013-04-03 01:34:00,
2013-04-02 20:43:00,29.0,11.0,-100.00,West,269,6.0,12.0,46,0.00,,,0.00,6.000000,,2013-04-03 01:43:00,
2013-04-02 20:53:00,29.0,11.0,-100.00,West,269,6.0,12.0,46,0.00,,,0.00,6.000000,,2013-04-03 01:53:00,
2013-04-02 21:03:00,29.0,11.0,-100.00,West,269,6.0,12.0,46,0.00,,,0.00,6.000000,,2013-04-03 02:03:00,
2013-04-02 21:05:00,27.0,12.0,-100.00,WNW,299,6.0,10.0,52,0.00,,,0.00,0.000000,,2013-04-03 02:05:00,
2013-04-02 21:34:00,27.0,12.0,-100.00,WNW,299,6.0,10.0,52,0.00,,,0.00,0.000000,,2013-04-03 02:34:00,
2013-04-02 21:44:00,27.0,12.0,-100.00,WNW,299,6.0,10.0,52,0.00,,,0.00,0.000000,,2013-04-03 02:44:00,
2013-04-02 21:53:00,27.0,12.0,-100.00,WNW,299,6.0,10.0,52,0.00,,,0.00,0.000000,,2013-04-03 02:53:00,
2013-04-02 22:38:00,25.0,12.0,-100.00,WNW,284,5.0,10.0,57,0.00,,,0.00,0.000000,,2013-04-03 03:38:00,
2013-04-02 22:44:00,25.0,12.0,-100.00,WNW,284,5.0,10.0,57,0.00,,,0.00,0.000000,,2013-04-03 03:44:00,
2013-04-02 22:54:00,25.0,12.0,-100.00,WNW,284,5.0,10.0,57,0.00,,,0.00,0.000000,,2013-04-03 03:54:00,
2013-04-02 23:03:00,25.0,12.0,-100.00,WNW,284,5.0,10.0,57,0.00,,,0.00,0.000000,,2013-04-03 04:03:00,
2013-04-02 23:33:00,25.0,12.0,-100.00,West,281,5.0,7.0,56,0.00,,,0.00,0.000000,,2013-04-03 04:33:00,
2013-04-02 23:43:00,25.0,12.0,-100.00,West,281,5.0,7.0,56,0.00,,,0.00,0.000000,,2013-04-03 04:43:00,
2013-04-02 23:53:00,25.0,12.0,-100.00,West,281,5.0,7.0,56,0.00,,,0.00,0.000000,,2013-04-03 04:53:00,